Showing default

YAOGAN-43 02C, 60947

Orbit data source: Space-Track

YAOGAN-43 02C, 60947 is a payload satellite owned by PLA GAD (CN) in LEO that was launched on Tue, 03 Sep 2024 UTC via a CHANG ZHENG 4B launch vehicle from the Xichang Space Center, China (XSC). Payload-class satellites include a variety of spacecraft equipped with specific instruments for various scientific and technological missions. These include communications satellites like Starlink; space stations such as the ISS; scientific satellites like the Hubble; Earth observation satellites from companies like Planet Labs, Umbra, and HawkEye 360; GPS; miniature CubeSats for education and research; and military/defense satellites.

Loading next visibility...
Identifier
60947, 2024-156C
Orbit
LEO
Country
Flag of CNCN / PRC
Related business
Manufacturer
SAST
Mission
Operational Defense Communications
Bus & Motor
Unknown
Mass
~300 kg wet, ~300 kg dry
Launch date (UTC)
2024-09-03 (2 years ago)
Launch vehicle
CHANG ZHENG 4B
Launch site
Xichang Space Center, China (XSC)
Object type
Payload
Rocket body
Debris
Shape & HBR
Box + 2 Pan, 2.5 m
Radar Cross Section
11.063 m², Medium (>0.1 m² and < 1m²)

Expand to show TLE details & history
Last TLE update: 8 hours ago

TLE from 8 hours ago
0 YAOGAN-43 02C
1 60947U 24156C   26130.55177722  .00004557  00000-0  18986-3 0  9998
2 60947  34.9978  74.8185 0003758  16.7053 343.3785 15.23129269 93708
Epoch: 2026-05-10T13:14Z
TLE epoch observation values (Epoch: 2026-05-10T13:14:33.551Z)
Latitude
-0.00003°
Longitude
7.82544°
Altitude
492.841 km
Speed
7.622 km/s
True Right ascension
04h 59m 16s
True Declination
0° 00' 00"
Sunlit
Object was in daylight at epoch
Visualization orbit readout
Latitude
Unknown
Longitude
Unknown
Altitude
Unknown
Speed
Unknown
Apparent Right ascension
Unknown
Apparent Declination
Unknown
Sunlit
N/A
Visualization observer readout
Local Sidereal Time
05:35:58
Azimuth
Unknown
Elevation
Unknown
Doppler factor
Unknown
Orbital elements
Apogee altitude
502.244 km
Perigee altitude
497.075 km
Semi-major axis
6,877.796 km
Eccentricity
0.00038
Inclination
34.9978°
RAAN
74.8185°
Arg. of periapsis
16.7053°
True anomaly
343.36618°
Mean anomaly
343.3785°
Eccentric anomaly
343.37234°
Mean motion
3.80513 °/min
Orbital period
94.61 mins
BSTAR
0.00018986
Loading maneuver chart data...
Computing Atmospheric mass density...
Loading historical data...
Loading historical data...
Loading historical data...
Loading historical data...
Loading historical data...
Loading historical data...
Loading historical data...

Documentation

Showing up to 5 results
|